カタログに戻る

STARLINK-34691

運用中通信VLEO
NORAD 65691·PAYLOAD·🇺🇸 United States

打ち上げ Sep 21, 2025 から Cape Canaveral Space Force Station

Loading…

次のパス (今後24時間)

TLE

最新Source: CelesTrak SupGP

元期: Sep 14, 2026, 22:59 UTC

1 65691C 25212R   26257.95812500 -.00070043  00000+0 -20684-2 0  2575
2 65691  53.1579 175.2680 0001224  97.1420 112.4622 15.34441042    17

AllMySatでSTARLINK-34691をリアルタイム追跡

Download on the App Store